Regional Weather Roundup
Issued by NWS

Home | Current Version | Previous Version | Text Only | Print | Product List | Glossary Off
Versions: 1 2 3 4 5 6 7 8 9 10 11 12 13 14 15 16 17 18 19 20 21 22 23 24 25 26 27 28 29 30 31 32 33 34 35 36 37 38 39 40 41 42 43 44 45 46 47 48 49 50

000
ASUS43 KIND 240159
RWRIN

WEATHER ROUNDUP FOR INDIANA
NATIONAL WEATHER SERVICE INDIANAPOLIS IN
900 PM EST THU FEB 23 2017

NOTE: "FAIR" INDICATES FEW OR NO CLOUDS BELOW 12,000 FEET WITH NO
SIGNIFICANT WEATHER AND/OR OBSTRUCTIONS TO VISIBILITY.

* - STATION DOES NOT REPORT WEATHER SUCH AS PRECIPITATION OR FOG.

+ - STATION NOT QUALITY CONTROLLED BY THE NATIONAL WEATHER SERVICE.
    USE DATA WITH CAUTION...ESPECIALLY DEWPOINT AND RELATIVE
    HUMIDITY OBSERVATIONS.

INZ001>003-010>013-019-020-240300-
NORTHWEST INDIANA

CITY           SKY/WX    TMP DP  RH WIND       PRES   REMARKS
GARY /AIRPORT/ LGT RAIN  39  37  93 N9        29.76F
KNOX *+        CLOUDY    41  32  70 NE8       29.72F
MICHIGAN CITY+ HVY RAIN  37  37 100 E3        29.74F
RENSSELAER +   CLOUDY    43  41  93 NE12      29.70F

$$

LMZ046-743>745-240300-
SOUTHERN LAKE MICHIGAN

STATION/POSITION TIME  TEMP    WIND        PRES    WAVE
                       AIR SEA DIR/SP/G            HT
                 (UTC) (F)     (DEG/KT/KT) (MB)    (FT)
BURNS HARBOR     0101   37      60/ 12/ 19 1008.8
MICHIGAN CITY    0130   36      30/ 17/ 19   N/A

$$

INZ004-005-014>016-021>024-240300-
NORTH CENTRAL INDIANA

CITY           SKY/WX    TMP DP  RH WIND       PRES   REMARKS
ELKHART        RAIN      45  43  93 N5        29.74F
GOSHEN         LGT RAIN  48  44  86 NE9       29.74F FOG
SOUTH BEND     LGT RAIN  41  40  96 NE6       29.74F

$$

INZ006>009-017-018-025>027-240300-
NORTHEAST INDIANA

CITY           SKY/WX    TMP DP  RH WIND       PRES   REMARKS
ANGOLA *+        N/A     50  48  93 CALM      29.76S
FORT WAYNE     CLOUDY    57  51  80 CALM      29.74F
KENDALLVILLE + CLOUDY    50  47  90 NE6       29.76S

$$

INZ028-029-035-036-043>045-051>053-240300-
WEST CENTRAL INDIANA

CITY           SKY/WX    TMP DP  RH WIND       PRES   REMARKS
LAFAYETTE      MOCLDY    54  48  80 E9        29.68F
TERRE HAUTE    CLOUDY    61  54  77 SE7       29.68S

$$

INZ030>032-037>040-046>048-054>057-064-065-240300-
CENTRAL INDIANA

CITY           SKY/WX    TMP DP  RH WIND       PRES   REMARKS
COLUMBUS       MOCLDY    59  57  94 SE7       29.72F
GREENWOOD *+   PTCLDY    62  56  80 SE6       29.73S
INDIANAPOLIS   CLOUDY    61  54  77 SE9       29.70F
-EAGLE CREEK   CLOUDY    63  53  70 SE5       29.70S
KOKOMO +       CLOUDY    56  53  90 E7        29.73S
MT COMFORT *+  MOCLDY    59  54  82 S7        29.72F
SHELBYVILLE    MOCLDY    62  54  74 SE10      29.72S

$$

INZ033-034-041-042-049-050-058-059-240300-
EAST CENTRAL INDIANA

CITY           SKY/WX    TMP DP  RH WIND       PRES   REMARKS
MUNCIE         MOCLDY    59  54  83 E7        29.74S

$$

INZ060-061-067>069-081>083-085>088-240300-
SOUTHWEST INDIANA

CITY           SKY/WX    TMP DP  RH WIND       PRES   REMARKS
EVANSVILLE     PTCLDY    63  53  70 SE5       29.68F
HUNTINGBURG *+ MOCLDY    61  54  77 SE8       29.70F

$$

INZ062-063-066-070>080-084-089>092-240300-
SOUTH CENTRAL AND SOUTHEAST INDIANA

CITY           SKY/WX    TMP DP  RH WIND       PRES   REMARKS
BLOOMINGTON    MOCLDY    61  53  75 SE6       29.70F
MADISON *+     CLOUDY    63  54  72 SE6       29.77S
SEYMOUR +      PTCLDY    63  55  77 SE6       29.72F

$$





USA.gov is the U.S. government's official web portal to all federal, state and local government web resources and services.